Temperature
25 25 24 25 26 26 26 25 25 25 26 25 25 24 24 24 24 23 23 22 22 22 21 21 20 20 20 19 19 19 18 18 17 17 17 17 16 16 16 16 16 16 16 16
25 24 25 26 26 26 25 25 25 25 26 26 25 24 25 24 24 23 23 23 22 22 21 21 20 20 19 19 19 19 18 18 17 17 17 16 16 16 16 16 16 16 16 16
24 25 26 26 25 25 25 25 25 25 25 26 25 24 24 24 24 23 23 23 22 22 21 21 20 20 19 19 19 18 18 18 17 17 17 16 16 16 16 16 16 15 15 15
25 25 25 25 25 25 24 25 25 25 24 24 25 23 24 24 24 24 23 23 22 22 21 21 20 20 19 19 18 18 18 18 17 17 17 16 16 16 16 16 16 15 15 15
24 25 25 24 25 25 25 25 25 25 24 24 25 24 24 24 23 23 23 23 22 22 21 21 20 20 19 19 18 18 18 18 17 17 17 16 16 16 16 16 16 15 15 15
25 25 25 25 25 25 25 25 25 25 24 23 24 24 23 24 24 24 23 23 22 21 21 21 20 19 19 19 18 18 18 17 17 17 17 16 16 16 16 16 16 15 15 15
24 25 25 25 24 25 25 23 22 22 22 22 25 25 23 24 24 24 23 22 22 21 21 20 20 19 19 18 18 18 17 17 17 17 17 17 16 16 16 16 16 16 15 15
23 23 24 24 24 24 24 24 22 22 22 24 25 24 23 24 24 24 23 22 22 21 20 20 20 19 19 18 18 18 17 17 17 17 17 17 16 16 16 16 16 16 15 15
23 23 24 25 25 24 24 24 24 23 23 23 24 24 23 24 24 23 23 22 21 21 20 20 19 19 18 18 18 17 17 17 17 17 17 16 16 16 16 16 16 16 15 15
23 22 24 24 24 24 24 24 23 23 22 22 23 24 22 22 23 23 22 22 21 21 20 20 19 19 18 18 18 17 17 17 17 17 16 16 16 16 16 16 16 16 16 15
23 22 23 23 23 23 24 23 23 23 23 22 21 22 24 23 23 23 22 22 21 21 20 19 19 19 18 18 17 17 17 17 17 17 16 16 16 16 16 16 16 16 16 15
23 22 22 23 24 24 23 23 23 21 22 22 21 22 24 23 23 23 22 21 21 20 20 20 19 18 18 18 17 17 17 17 17 17 16 16 16 16 16 16 16 16 16 15
22 21 21 21 22 22 22 23 22 22 22 21 21 21 24 23 23 22 21 21 21 20 20 19 19 18 18 18 17 17 17 17 17 17 16 16 16 16 16 16 16 15 15 15
21 21 21 20 21 22 21 22 22 21 20 21 21 22 22 22 22 22 21 21 20 20 19 19 19 18 18 18 17 17 17 17 17 16 16 16 16 16 16 15 15 15 15 15
21 21 21 22 22 22 22 22 22 21 21 21 21 22 22 22 22 22 21 21 20 19 19 19 18 18 18 17 17 17 17 17 17 16 16 16 16 16 15 15 15 15 15 15
21 21 21 21 22 22 22 22 22 22 22 22 21 22 23 22 22 21 21 20 20 19 19 18 18 18 17 17 17 17 17 17 16 16 16 16 16 15 15 15 15 15 15 15
21 21 20 20 21 21 20 22 22 22 22 22 21 21 22 22 21 21 21 20 20 19 18 18 18 18 17 17 17 17 17 16 16 16 16 16 16 15 15 15 15 15 15 14
20 20 19 19 20 18 21 22 22 22 22 22 22 22 22 21 21 21 20 20 19 19 18 18 17 17 17 17 17 17 17 16 16 16 16 16 15 15 15 14 14 14 14 14
20 19 18 18 18 19 21 22 21 21 21 22 21 21 21 21 21 20 20 19 19 18 18 18 17 17 17 17 17 16 16 16 16 16 16 16 15 15 14 14 14 14 14 14
20 19 18 18 17 18 20 21 21 20 19 21 21 20 20 20 19 19 19 19 18 18 17 17 17 17 17 16 16 16 16 16 16 16 16 15 15 15 14 14 14 14 13 13
18 18 17 17 17 19 20 20 20 18 18 19 19 19 19 19 19 19 18 18 18 17 17 17 16 16 16 16 16 16 16 15 16 16 15 15 15 15 14 14 14 13 13 13
18 18 18 18 17 17 19 19 19 18 19 18 18 18 18 18 18 18 17 17 17 17 17 16 16 16 16 16 16 15 15 15 15 15 15 15 15 14 14 14 13 13 13 13
19 19 18 18 18 18 18 18 18 18 18 18 18 17 17 17 17 17 16 16 16 16 16 16 16 15 15 15 15 15 15 15 15 15 15 14 14 14 14 13 13 13 13 13
19 19 18 17 18 18 17 17 17 17 17 17 17 17 16 16 16 16 16 16 16 16 15 15 15 15 15 15 15 15 15 15 15 14 14 14 14 14 13 13 13 13 13 13
17 17 17 16 17 17 17 16 16 16 16 16 16 15 15 15 15 15 15 15 15 15 15 15 15 14 14 14 14 14 14 14 14 14 14 14 13 13 13 13 13 13 13 13
16 16 15 15 16 16 16 15 15 15 15 15 15 15 14 14 14 14 14 14 14 14 14 14 14 14 14 14 14 14 14 14 14 13 13 13 13 13 13 12 12 12 12 12
Wind_Speed
6 6 4 3 3 5 3 3 3 1 2 3 4 3 5 6 5 5 5 6 6 6 7 6 6 5 6 4 4 5 6 6 5 3 2 3 2 2 2 2 4 4 4 5
5 5 3 2 3 6 5 5 4 2 3 4 3 4 4 6 6 5 4 5 6 5 7 7 7 5 5 5 3 5 4 6 5 3 2 3 3 2 3 2 3 3 4 4
5 1 1 4 5 6 6 5 5 4 4 6 5 5 6 7 7 6 5 4 4 5 6 7 7 6 5 5 4 4 4 5 5 5 3 3 3 2 2 2 2 2 3 3
4 3 4 5 5 6 5 4 5 7 7 5 6 4 4 6 7 7 6 4 4 4 5 6 6 7 6 6 6 5 4 5 5 5 4 4 3 2 3 3 2 1 2 3
3 3 4 5 4 5 5 5 7 9 9 8 8 5 3 6 6 7 6 5 4 4 5 7 6 6 6 6 6 5 5 5 5 5 5 3 3 2 2 3 3 3 2 2
5 3 3 4 3 5 6 8 10 10 7 7 8 6 2 3 3 5 5 5 4 3 4 5 6 6 5 5 5 5 5 5 5 5 5 4 4 3 3 3 3 3 2 2
7 7 5 4 5 6 7 7 4 4 5 5 5 3 3 5 5 4 5 5 4 5 4 5 6 6 5 6 5 5 5 5 4 4 4 5 4 4 4 3 3 3 3 2
5 5 5 4 5 5 6 7 5 4 4 3 3 2 5 7 6 5 5 5 4 5 4 4 6 6 6 6 5 6 6 5 5 4 3 4 5 3 2 3 3 3 3 3
4 1 4 3 3 5 6 6 7 8 9 6 2 3 5 6 6 5 5 5 5 4 4 4 5 6 6 6 5 5 6 5 5 5 4 3 4 4 3 2 3 3 3 4
6 4 4 4 4 7 7 7 5 5 5 5 4 3 4 5 5 5 4 4 4 4 3 4 4 5 6 5 5 6 6 6 5 5 5 4 3 4 3 3 3 3 3 4
6 6 4 5 6 6 6 7 6 5 5 5 4 1 3 5 4 3 3 3 3 3 3 3 4 4 5 5 5 5 5 6 5 5 5 4 4 4 3 2 2 3 3 4
4 5 7 7 4 3 6 7 6 5 6 6 5 1 3 4 4 2 2 3 3 2 2 2 3 4 4 5 5 5 5 5 5 5 5 4 4 4 4 3 3 3 3 4
3 5 5 4 4 4 5 5 6 6 7 7 7 2 2 2 2 2 3 3 2 2 2 2 3 2 3 4 4 4 5 5 4 5 5 5 4 5 4 3 3 3 3 3
4 7 8 7 5 4 7 8 8 8 7 8 9 6 3 2 0 1 2 2 2 1 1 1 3 3 2 3 4 4 4 4 5 5 5 5 4 5 5 4 4 4 3 3
5 9 12 11 10 9 9 10 10 11 11 10 10 9 6 3 2 1 2 2 1 1 1 1 2 3 3 3 4 3 4 4 5 5 5 5 4 4 5 4 3 3 3 3
8 9 11 12 11 11 13 12 12 13 12 12 12 10 6 3 2 2 1 1 1 1 1 1 2 2 3 3 3 4 4 5 5 5 5 5 5 4 4 4 3 3 2 2
7 9 9 10 11 11 11 9 10 9 10 9 10 7 4 3 3 2 2 1 2 1 1 1 2 2 3 4 4 4 4 4 5 5 5 5 5 5 5 4 3 3 3 3
8 8 6 7 9 11 5 2 3 5 7 7 7 5 4 4 4 2 1 2 1 1 1 1 2 2 3 3 3 3 4 5 5 5 5 6 6 5 5 5 4 4 3 3
8 7 6 6 9 10 8 3 3 5 8 6 6 5 4 3 4 3 1 1 1 1 1 1 2 2 3 2 2 3 3 4 5 5 5 6 6 6 5 5 5 5 4 4
8 8 8 8 9 8 5 1 3 5 6 2 2 3 3 2 3 2 1 0 1 1 1 1 2 2 2 2 2 3 4 4 5 5 5 5 6 6 6 6 5 4 4 4
8 8 10 11 11 8 2 1 2 4 2 4 4 3 4 3 3 3 3 3 2 1 1 1 2 2 3 3 3 4 4 4 4 4 4 5 6 7 6 6 5 4 4 4
7 7 9 10 11 7 1 3 4 3 5 6 6 5 5 5 5 5 3 3 3 2 2 2 2 3 3 3 4 5 5 4 3 4 5 5 6 6 6 6 5 5 5 5
6 5 4 5 4 3 4 4 5 7 7 8 7 6 5 6 6 5 4 4 4 4 3 2 3 3 4 4 4 5 5 4 4 4 5 5 6 6 5 6 6 5 5 5
7 6 7 8 6 6 7 7 7 8 8 8 7 6 6 6 6 5 5 6 5 4 3 2 3 4 4 4 4 4 4 4 4 5 5 5 5 6 5 5 5 5 6 6
8 7 9 11 9 9 8 7 8 8 8 9 8 7 6 6 7 6 6 6 5 5 3 3 3 4 5 4 4 3 3 4 5 5 5 5 5 5 5 5 5 7 7 7
10 10 10 10 9 9 10 8 9 9 9 9 8 8 7 6 7 7 6 6 6 5 4 4 4 5 5 4 4 3 3 4 5 5 5 4 4 4 4 4 3 4 5 8
Wind_Direction
214 224 228 231 239 272 283 285 276 239 216 242 236 225 190 184 195 199 187 182 182 172 158 153 151 148 150 147 137 130 140 128 119 114 119 119 111 101 88 73 67 62 38 38
220 228 240 257 275 275 266 265 263 243 244 259 245 240 210 187 190 192 203 190 181 170 161 155 154 160 155 140 138 128 129 130 130 128 131 128 123 124 107 81 65 60 61 49
230 196 237 235 236 253 260 272 285 282 270 257 252 248 218 190 186 182 199 193 188 173 169 161 161 158 149 148 148 143 139 130 134 137 120 106 98 98 109 111 87 53 69 66
237 221 238 249 258 272 268 277 286 283 274 262 242 258 204 179 175 179 182 176 180 177 169 159 158 157 158 154 149 156 153 134 127 131 130 132 141 147 146 131 134 126 87 84
237 207 233 250 263 284 290 302 278 270 270 269 256 256 198 175 176 171 168 166 169 172 169 159 159 160 159 150 151 160 146 134 134 138 139 162 146 144 133 129 137 138 116 104
248 250 277 286 281 266 277 272 262 253 258 262 251 239 191 171 147 148 148 151 155 155 153 150 150 146 143 143 147 147 145 140 140 150 158 164 149 151 149 150 152 152 145 148
227 213 212 250 260 240 252 268 272 239 220 241 239 221 133 104 87 103 117 129 141 139 143 144 147 143 145 151 153 153 151 146 152 168 170 160 150 163 164 161 153 158 151 151
246 216 189 206 252 268 255 254 272 289 279 271 221 190 119 107 98 92 100 108 112 127 128 128 142 145 147 152 161 165 158 161 168 172 178 164 152 149 146 165 158 169 151 147
294 217 152 178 236 270 276 271 281 286 291 291 249 126 121 123 126 118 112 108 109 122 136 139 138 143 150 160 164 167 163 170 175 174 182 163 146 144 146 173 166 159 150 147
299 288 214 197 237 234 260 293 293 285 292 282 270 219 157 151 140 125 111 108 118 124 133 135 140 153 151 156 170 170 166 171 178 179 176 160 149 146 156 161 163 155 147 148
283 275 248 218 231 247 233 250 264 279 280 289 294 4 75 136 121 120 117 103 93 113 134 146 148 145 156 158 163 169 175 178 181 183 172 162 163 157 158 157 155 154 157 159
273 280 264 247 233 262 274 270 276 280 284 285 288 313 84 98 102 108 107 96 96 107 118 130 139 139 152 164 169 179 186 182 180 178 166 166 166 155 160 168 168 161 167 170
316 275 271 245 202 209 252 260 277 285 281 274 274 250 138 103 92 86 83 79 84 84 93 115 124 146 166 173 178 188 188 180 179 174 170 172 175 171 174 182 175 172 175 177
283 262 268 275 301 285 265 269 270 271 269 273 273 273 253 267 300 121 114 107 97 101 101 134 149 167 190 205 189 191 191 179 178 178 175 177 179 173 172 182 184 181 174 172
248 262 272 279 282 276 273 271 268 264 266 271 281 287 276 269 266 232 171 145 127 142 179 186 171 173 192 219 200 185 187 180 185 179 176 176 170 170 168 175 179 173 173 179
243 266 279 281 279 276 271 265 264 264 266 267 274 279 289 288 313 310 234 161 172 194 209 222 215 205 211 222 211 185 187 192 187 185 182 172 170 169 167 172 170 160 174 181
247 260 272 275 283 283 267 261 256 256 263 266 268 279 297 294 274 260 251 217 199 193 191 229 248 242 240 228 213 198 190 192 194 190 173 165 166 168 175 177 166 174 187 191
264 274 274 274 279 265 270 289 273 271 271 277 278 284 285 285 284 262 236 266 243 207 210 218 236 244 258 247 227 209 200 194 203 194 175 166 170 173 179 179 182 194 198 194
249 256 260 263 266 272 271 276 288 283 277 276 277 275 275 268 270 259 218 183 271 270 262 244 250 254 253 250 238 217 214 200 202 199 189 177 171 172 181 192 196 197 198 200
235 242 247 254 262 265 272 7 343 301 277 296 305 318 311 288 265 277 9 42 234 249 276 259 264 279 270 261 243 221 221 212 208 204 201 185 178 181 189 198 202 202 201 204
222 230 234 248 256 264 302 344 321 264 293 10 350 337 320 298 308 331 350 356 347 320 271 260 266 265 264 252 229 230 235 229 217 201 201 195 185 189 192 196 197 199 203 203
244 237 235 239 247 253 309 278 270 292 319 323 318 313 314 322 327 334 335 328 310 284 264 255 255 266 269 256 232 230 235 233 217 202 201 201 196 200 198 187 195 200 205 210
251 257 266 258 259 305 325 314 314 312 309 312 316 319 318 310 308 310 306 302 298 286 271 256 243 254 265 258 243 239 238 224 216 208 205 203 200 203 193 189 194 198 202 207
275 282 273 275 274 290 304 307 310 312 310 316 322 320 312 302 298 300 300 295 295 292 277 260 251 257 267 263 257 248 236 222 215 216 211 205 205 200 193 195 197 202 207 209
293 300 286 280 287 298 295 305 318 321 319 316 314 309 303 295 292 294 292 289 290 290 281 266 258 259 263 263 262 255 233 225 225 218 213 211 209 204 202 204 210 212 215 212
275 276 274 276 289 295 301 313 321 318 314 310 307 303 299 291 287 288 289 290 291 293 289 279 268 264 267 268 262 260 249 230 227 225 222 219 213 206 205 209 230 243 231 221
Height
1508 1509 1510 1507 1506 1506 1506 1510 1513 1510 1506 1509 1512 1513 1512 1514 1516 1517 1519 1521 1523 1525 1527 1529 1531 1533 1535 1537 1538 1539 1540 1541 1542 1543 1543 1544 1545 1545 1546 1546 1546 1547 1547 1547
1508 1510 1506 1504 1505 1505 1507 1511 1512 1508 1505 1507 1510 1511 1509 1511 1513 1515 1517 1518 1520 1523 1525 1527 1529 1532 1534 1535 1537 1538 1539 1540 1541 1542 1543 1544 1545 1546 1546 1546 1546 1547 1547 1547
1509 1507 1504 1505 1507 1509 1508 1511 1511 1511 1507 1505 1510 1513 1509 1508 1510 1513 1515 1517 1518 1521 1523 1525 1527 1530 1532 1534 1535 1537 1539 1540 1541 1542 1543 1544 1544 1545 1545 1546 1546 1546 1547 1547
1506 1504 1505 1506 1507 1507 1512 1506 1507 1509 1513 1514 1510 1522 1509 1505 1507 1509 1512 1514 1517 1519 1521 1523 1526 1528 1530 1532 1534 1536 1538 1539 1540 1541 1542 1543 1544 1545 1545 1546 1546 1546 1547 1547
1506 1504 1506 1508 1507 1507 1508 1505 1507 1508 1510 1513 1508 1515 1511 1502 1506 1507 1509 1512 1515 1517 1519 1522 1524 1526 1529 1531 1532 1535 1537 1538 1539 1540 1541 1542 1544 1544 1545 1546 1546 1546 1547 1547
1504 1504 1505 1506 1505 1506 1505 1507 1506 1505 1510 1522 1508 1512 1514 1503 1502 1504 1507 1510 1513 1516 1518 1520 1523 1525 1527 1529 1531 1533 1535 1537 1538 1539 1540 1542 1543 1544 1545 1545 1545 1546 1546 1547
1506 1504 1504 1506 1507 1506 1507 1514 1522 1524 1525 1521 1499 1504 1510 1500 1499 1502 1505 1509 1511 1514 1516 1519 1521 1523 1525 1528 1530 1532 1534 1535 1537 1538 1539 1541 1542 1543 1544 1545 1545 1546 1546 1547
1511 1511 1504 1504 1507 1509 1507 1510 1524 1531 1524 1512 1499 1505 1505 1498 1501 1503 1506 1508 1510 1513 1515 1517 1519 1521 1524 1526 1528 1530 1532 1534 1535 1537 1538 1540 1541 1542 1543 1544 1544 1545 1546 1546
1510 1511 1503 1503 1505 1506 1508 1508 1504 1512 1511 1515 1506 1503 1502 1498 1501 1504 1506 1508 1510 1512 1514 1516 1518 1520 1522 1524 1526 1528 1530 1532 1534 1536 1537 1539 1540 1540 1541 1542 1544 1545 1545 1545
1508 1513 1505 1503 1505 1505 1507 1506 1509 1515 1524 1525 1512 1506 1509 1505 1503 1504 1506 1508 1510 1512 1513 1515 1517 1519 1521 1523 1525 1527 1529 1530 1532 1534 1536 1537 1538 1539 1540 1541 1542 1543 1544 1544
1508 1513 1509 1505 1507 1507 1507 1508 1508 1511 1512 1523 1525 1516 1496 1500 1501 1503 1505 1507 1509 1511 1513 1514 1516 1517 1519 1521 1523 1525 1527 1529 1530 1532 1534 1535 1536 1537 1538 1540 1541 1542 1542 1543
1508 1511 1513 1506 1501 1501 1504 1505 1508 1519 1518 1513 1519 1517 1496 1498 1500 1503 1505 1507 1509 1510 1512 1513 1514 1516 1518 1519 1521 1523 1525 1527 1528 1530 1531 1533 1534 1535 1536 1538 1539 1540 1541 1541
1511 1514 1519 1515 1511 1507 1506 1505 1507 1510 1513 1516 1520 1516 1497 1498 1500 1503 1505 1507 1508 1510 1511 1512 1513 1515 1516 1518 1519 1521 1523 1524 1526 1528 1529 1530 1531 1533 1534 1535 1537 1538 1539 1540
1513 1513 1517 1522 1514 1509 1509 1507 1506 1511 1517 1516 1512 1507 1501 1500 1501 1503 1505 1506 1508 1510 1511 1512 1513 1514 1515 1516 1518 1519 1521 1522 1524 1525 1526 1528 1529 1530 1531 1533 1534 1535 1536 1537
1511 1513 1508 1505 1502 1503 1505 1505 1505 1508 1508 1512 1507 1503 1500 1498 1500 1501 1503 1505 1507 1509 1510 1511 1511 1512 1513 1514 1516 1517 1518 1519 1521 1523 1524 1525 1526 1527 1529 1530 1532 1533 1534 1535
1509 1510 1508 1507 1502 1501 1502 1501 1501 1502 1501 1502 1502 1501 1496 1497 1499 1500 1502 1503 1506 1507 1509 1509 1510 1510 1511 1512 1513 1514 1515 1517 1518 1520 1521 1522 1523 1524 1526 1527 1529 1530 1531 1532
1507 1509 1512 1512 1504 1502 1505 1497 1496 1497 1496 1497 1501 1499 1495 1496 1498 1499 1501 1502 1504 1505 1506 1507 1508 1508 1509 1510 1510 1511 1512 1514 1516 1517 1518 1519 1520 1521 1522 1524 1525 1526 1527 1529
1507 1508 1511 1512 1511 1517 1499 1489 1490 1492 1493 1493 1493 1494 1495 1496 1497 1498 1499 1501 1502 1503 1504 1505 1505 1506 1506 1507 1508 1509 1510 1511 1512 1514 1514 1515 1516 1518 1519 1520 1521 1523 1524 1525
1504 1508 1513 1514 1515 1506 1496 1490 1491 1494 1493 1491 1491 1492 1493 1494 1495 1496 1497 1499 1500 1501 1501 1502 1503 1503 1504 1505 1505 1506 1507 1508 1509 1510 1510 1511 1512 1513 1515 1516 1517 1519 1520 1521
1502 1505 1511 1512 1516 1513 1497 1491 1491 1493 1496 1490 1491 1491 1492 1493 1496 1497 1496 1497 1498 1498 1499 1499 1500 1501 1501 1502 1502 1503 1503 1504 1504 1505 1507 1508 1509 1510 1511 1512 1513 1515 1516 1517
1504 1506 1509 1511 1511 1501 1493 1492 1493 1502 1499 1493 1492 1493 1493 1493 1495 1495 1495 1495 1495 1495 1496 1497 1497 1497 1498 1498 1499 1499 1500 1500 1501 1502 1502 1504 1505 1506 1507 1508 1510 1511 1512 1513
1499 1503 1504 1504 1508 1505 1493 1493 1495 1496 1493 1493 1492 1492 1493 1492 1492 1492 1492 1492 1493 1493 1493 1493 1493 1493 1494 1495 1496 1496 1496 1497 1497 1498 1498 1499 1501 1502 1503 1504 1505 1507 1508 1509
1495 1496 1497 1498 1499 1494 1493 1493 1493 1492 1492 1491 1491 1490 1491 1491 1490 1490 1490 1490 1490 1490 1490 1490 1490 1490 1490 1491 1491 1491 1492 1493 1493 1494 1494 1495 1496 1498 1499 1500 1501 1502 1503 1504
1492 1492 1493 1494 1491 1491 1492 1491 1491 1490 1490 1489 1488 1488 1488 1488 1488 1488 1488 1488 1487 1486 1486 1486 1486 1486 1486 1487 1487 1487 1487 1488 1489 1489 1490 1491 1492 1493 1494 1495 1496 1497 1498 1499
1495 1494 1494 1493 1492 1491 1489 1489 1489 1488 1488 1487 1486 1486 1486 1486 1486 1485 1485 1485 1484 1483 1483 1482 1482 1482 1482 1482 1482 1482 1483 1483 1484 1484 1485 1486 1487 1488 1489 1490 1490 1491 1492 1493
1495 1495 1495 1493 1492 1491 1489 1488 1487 1486 1485 1485 1484 1483 1483 1483 1483 1482 1482 1481 1480 1479 1479 1478 1478 1477 1477 1477 1477 1477 1478 1478 1478 1479 1480 1481 1482 1483 1483 1484 1485 1486 1487 1488